Total_Precipitation_Accumulation
1.25 1.38 1.38 1.48 1.40 1.43 1.33 1.17 0.97 0.88 0.77 0.68 0.70 0.70 0.64 0.62 0.60 0.66 0.80 0.88 0.95 1.13 1.31 1.32 1.19 1.08 1.04 1.01 0.96 0.88 0.84 0.77 0.71 0.60 0.51 0.45 0.42 0.40 0.39 0.39 0.37 0.35 0.32
1.53 1.59 1.63 1.69 1.59 1.59 1.62 1.48 1.26 1.13 1.04 0.93 0.86 0.83 0.80 0.84 0.86 0.83 0.97 1.05 1.02 1.04 1.21 1.42 1.46 1.45 1.43 1.41 1.30 1.13 1.04 0.96 0.91 0.83 0.73 0.62 0.54 0.48 0.45 0.45 0.44 0.40 0.36
1.82 1.77 1.92 2.01 1.86 1.80 1.81 1.70 1.60 1.36 1.32 1.30 1.24 1.14 1.06 1.04 1.11 1.15 1.19 1.28 1.35 1.26 1.24 1.37 1.48 1.54 1.58 1.63 1.51 1.38 1.30 1.24 1.17 1.06 0.94 0.82 0.71 0.60 0.53 0.50 0.49 0.45 0.40
2.14 2.21 2.16 2.11 2.05 2.01 2.00 2.04 1.87 1.64 1.59 1.68 1.62 1.42 1.25 1.26 1.37 1.40 1.37 1.43 1.53 1.47 1.46 1.36 1.40 1.49 1.57 1.65 1.63 1.61 1.56 1.52 1.41 1.27 1.16 1.05 0.94 0.82 0.72 0.63 0.56 0.52 0.47
2.50 2.58 2.67 2.52 2.33 2.21 2.20 2.08 2.04 1.93 1.92 1.92 1.69 1.50 1.31 1.28 1.35 1.39 1.38 1.45 1.57 1.64 1.65 1.48 1.45 1.58 1.64 1.70 1.74 1.76 1.78 1.76 1.61 1.48 1.35 1.24 1.14 1.00 0.86 0.75 0.67 0.62 0.58
3.14 3.08 2.96 2.79 2.61 2.49 2.44 2.34 2.28 2.21 2.08 1.93 1.62 1.45 1.27 1.19 1.22 1.29 1.34 1.36 1.39 1.44 1.45 1.42 1.44 1.42 1.50 1.61 1.75 1.88 1.94 1.97 1.88 1.68 1.53 1.45 1.36 1.24 1.12 1.00 0.89 0.82 0.74
3.63 3.55 3.42 3.22 3.02 2.81 2.65 2.46 2.32 2.23 2.07 1.88 1.69 1.52 1.29 1.10 1.10 1.15 1.15 1.18 1.22 1.22 1.24 1.28 1.38 1.36 1.31 1.42 1.49 1.68 1.86 1.99 2.05 1.99 1.90 1.82 1.71 1.56 1.41 1.28 1.15 1.04 0.94
4.12 3.98 3.85 3.61 3.35 3.10 2.85 2.63 2.37 2.21 2.02 1.83 1.73 1.74 1.55 1.33 1.06 0.90 0.90 0.92 0.95 0.94 0.98 1.07 1.08 1.10 1.09 1.15 1.24 1.37 1.55 1.68 1.75 1.79 1.80 1.75 1.71 1.67 1.58 1.48 1.38 1.28 1.22
4.19 3.86 3.65 3.58 3.35 3.00 2.75 2.55 2.32 2.13 1.94 1.77 1.64 1.70 1.63 1.46 1.21 1.04 0.89 0.79 0.79 0.86 0.89 0.98 1.01 0.96 0.92 0.91 0.98 1.12 1.19 1.23 1.37 1.43 1.45 1.45 1.44 1.41 1.41 1.42 1.44 1.41 1.36
3.93 3.60 3.31 3.06 2.84 2.56 2.32 2.17 2.06 1.96 1.87 1.74 1.64 1.43 1.24 1.08 1.11 1.08 0.97 0.86 0.80 0.83 0.82 0.81 0.85 0.88 0.85 0.84 0.93 1.03 1.06 1.08 1.18 1.22 1.21 1.21 1.23 1.20 1.16 1.18 1.23 1.29 1.33
3.15 2.88 2.59 2.32 2.09 1.90 1.72 1.56 1.52 1.63 1.70 1.69 1.66 1.56 1.38 1.18 1.03 0.97 0.99 0.94 0.90 0.91 0.88 0.84 0.81 0.81 0.77 0.76 0.80 0.95 1.03 1.01 1.02 0.99 0.96 0.94 0.95 1.01 1.06 1.08 1.11 1.17 1.26
2.40 2.16 1.92 1.71 1.53 1.36 1.23 1.17 1.15 1.21 1.31 1.38 1.41 1.41 1.41 1.39 1.29 1.15 1.10 1.06 1.03 1.03 0.97 0.94 0.92 0.89 0.86 0.83 0.88 1.06 0.98 0.97 0.93 0.87 0.80 0.76 0.74 0.74 0.83 0.93 1.02 1.13 1.24
1.71 1.51 1.33 1.18 1.06 0.97 0.93 0.89 0.90 0.97 1.00 1.05 1.12 1.19 1.23 1.25 1.24 1.23 1.25 1.20 1.09 1.00 0.91 0.88 0.88 0.86 0.84 0.82 0.84 0.92 0.83 0.84 0.83 0.80 0.77 0.73 0.68 0.64 0.65 0.70 0.79 0.89 1.00
1.03 0.89 0.81 0.74 0.70 0.69 0.67 0.65 0.67 0.72 0.77 0.78 0.80 0.86 0.94 0.98 0.98 1.00 1.05 1.07 1.10 1.02 0.88 0.82 0.76 0.76 0.73 0.68 0.76 0.77 0.71 0.77 0.73 0.68 0.62 0.56 0.52 0.49 0.50 0.53 0.57 0.61 0.66
0.70 0.62 0.57 0.54 0.51 0.52 0.51 0.48 0.45 0.45 0.51 0.58 0.59 0.60 0.64 0.67 0.66 0.68 0.71 0.76 0.86 0.93 0.85 0.71 0.66 0.65 0.61 0.59 0.65 0.57 0.61 0.69 0.64 0.58 0.52 0.46 0.43 0.42 0.41 0.41 0.42 0.42 0.44
0.48 0.43 0.37 0.33 0.31 0.31 0.33 0.35 0.35 0.32 0.33 0.37 0.38 0.40 0.44 0.46 0.47 0.49 0.54 0.59 0.66 0.76 0.81 0.65 0.57 0.54 0.50 0.44 0.50 0.47 0.52 0.53 0.47 0.44 0.39 0.35 0.33 0.32 0.32 0.32 0.33 0.33 0.34
0.28 0.27 0.24 0.22 0.20 0.21 0.23 0.26 0.29 0.30 0.31 0.31 0.30 0.30 0.33 0.35 0.36 0.37 0.39 0.42 0.47 0.54 0.63 0.58 0.47 0.42 0.41 0.42 0.43 0.42 0.39 0.36 0.33 0.32 0.30 0.28 0.25 0.23 0.23 0.24 0.25 0.26 0.27
0.19 0.19 0.20 0.19 0.16 0.17 0.20 0.23 0.24 0.24 0.27 0.29 0.28 0.27 0.27 0.29 0.32 0.31 0.32 0.33 0.37 0.45 0.54 0.58 0.47 0.38 0.36 0.36 0.36 0.35 0.26 0.23 0.25 0.26 0.24 0.22 0.21 0.20 0.19 0.18 0.17 0.17 0.15
0.17 0.16 0.14 0.14 0.13 0.13 0.15 0.16 0.17 0.19 0.21 0.23 0.22 0.21 0.21 0.23 0.25 0.24 0.26 0.28 0.30 0.34 0.42 0.47 0.39 0.33 0.28 0.25 0.31 0.31 0.28 0.32 0.20 0.15 0.14 0.13 0.13 0.13 0.12 0.11 0.10 0.09 0.07
0.14 0.12 0.11 0.11 0.11 0.10 0.10 0.09 0.09 0.12 0.15 0.16 0.15 0.16 0.17 0.18 0.20 0.23 0.23 0.25 0.28 0.31 0.34 0.37 0.33 0.27 0.25 0.23 0.35 0.43 0.39 0.33 0.24 0.13 0.13 0.10 0.10 0.09 0.11 0.15 0.11 0.09 0.08
0.12 0.12 0.10 0.11 0.11 0.09 0.06 0.05 0.06 0.07 0.10 0.11 0.11 0.11 0.12 0.14 0.18 0.20 0.21 0.25 0.30 0.35 0.36 0.39 0.37 0.32 0.30 0.37 0.45 0.45 0.42 0.32 0.25 0.19 0.23 0.20 0.25 0.39 0.58 0.63 0.41 0.21 0.13
0.15 0.13 0.12 0.12 0.11 0.11 0.10 0.08 0.07 0.07 0.08 0.10 0.12 0.11 0.10 0.10 0.11 0.12 0.14 0.18 0.27 0.35 0.43 0.48 0.45 0.43 0.39 0.46 0.53 0.53 0.55 0.51 0.43 0.28 0.30 0.28 0.38 0.74 1.12 1.33 0.92 0.40 0.26
0.18 0.15 0.11 0.12 0.13 0.11 0.11 0.09 0.09 0.09 0.10 0.13 0.16 0.16 0.13 0.11 0.16 0.18 0.16 0.13 0.17 0.24 0.39 0.55 0.59 0.52 0.50 0.56 0.65 0.66 0.64 0.62 0.56 0.40 0.45 0.47 0.54 0.85 0.96 1.07 1.02 0.65 0.50
0.19 0.18 0.13 0.13 0.15 0.12 0.11 0.11 0.10 0.12 0.12 0.13 0.15 0.17 0.21 0.24 0.20 0.15 0.13 0.17 0.27 0.38 0.44 0.49 0.57 0.52 0.49 0.53 0.64 0.67 0.63 0.59 0.54 0.50 0.56 0.64 0.63 0.78 0.78 1.05 1.25 1.11 0.92
0.18 0.18 0.14 0.14 0.16 0.15 0.12 0.12 0.11 0.13 0.14 0.13 0.12 0.13 0.16 0.21 0.17 0.14 0.17 0.28 0.37 0.44 0.37 0.45 0.52 0.58 0.61 0.60 0.56 0.58 0.71 0.75 0.73 0.57 0.55 0.63 0.70 0.78 0.90 1.21 1.30 1.30 1.22
0.17 0.15 0.14 0.14 0.15 0.15 0.08 0.08 0.10 0.12 0.15 0.14 0.15 0.19 0.16 0.13 0.14 0.15 0.20 0.32 0.43 0.46 0.55 0.72 0.87 0.93 0.86 0.78 0.64 0.65 0.81 0.87 0.88 0.80 0.61 0.62 0.72 0.87 1.14 1.33 1.31 1.22 1.21